Middleton, WI

12:45 PM CST on February 25, 2017 (GMT -0600)
Middleton

Weather History for KC29 - August, 2014

Change the Weather History Date:

Tuesday, August 12, 2014

  Actual Average (KMSN) Record (KMSN)
Temperature  
Mean Temperature 66 °F -  
Max Temperature 75 °F 80 °F 99 °F (1995)
Min Temperature 57 °F 54 °F 38 °F (1967)
Cooling Degree Days 1    
Growing Degree Days 16 (Base 50)    
Moisture  
Dew Point 51 °F    
Average Humidity 61    
Maximum Humidity 79    
Minimum Humidity 39    
Precipitation  
Precipitation 0.00 in - - ()
Sea Level Pressure  
Sea Level Pressure 29.94 in    
Wind  
Wind Speed 12 mph (NW)    
Max Wind Speed 17 mph    
Max Gust Speed 29 mph    
Visibility 10 miles    
Events      
Averages and records for this station are not official NWS values.
T = Trace of Precipitation, MM = Missing Value Source: NWS Daily Summary

Daily Weather History Graph

Daily Weather History Graph

Search for Another Location

Airport or City:

Trip Planner

Search our weather history database for the weather conditions in past years. The results will help you decide how hot, cold, wet, or windy it might be!

Date:

Astronomy

Aug. 12, 2014 Rise Set
Actual Time 6:00 AM CDT 8:04 PM CDT
Civil Twilight 5:29 AM CDT 8:35 PM CDT
Nautical Twilight 4:51 AM CDT 9:13 PM CDT
Astronomical Twilight 4:09 AM CDT 9:55 PM CDT
Moon 9:06 PM CDT (8/12) 8:22 AM CDT (8/12)
Length of Visible Light 15h 06m
Length of Day
14h 04m
Waning Gibbous, 94% of the Moon is Illuminated
Aug 12
Waning Gibbous
Aug 17
Last Quarter
Aug 25
New
Sep 2
First Quarter
Sep 8
Full

Hourly Weather History & Observations

Time (CDT) Temp. Dew Point Humidity Pressure Visibility Wind Dir Wind Speed Gust Speed Precip Events Conditions
3:35 AM 63.0 °F 55.4 °F 76% 29.87 in 10.0 mi NNW 10.4 mph - N/A   Overcast
3:55 AM 62.8 °F 54.0 °F 73% 29.87 in 10.0 mi North 13.8 mph 18.4 mph N/A   Overcast
4:15 AM 62.6 °F 53.6 °F 72% 29.87 in 10.0 mi NNW 15.0 mph 18.4 mph N/A   Overcast
4:35 AM 62.2 °F 52.7 °F 71% 29.88 in 10.0 mi NNW 13.8 mph 18.4 mph N/A   Overcast
4:55 AM 61.7 °F 52.3 °F 71% 29.88 in 10.0 mi NNW 12.7 mph 20.7 mph N/A   Overcast
5:35 AM 61.2 °F 52.2 °F 72% 29.89 in 10.0 mi NNW 11.5 mph 23.0 mph N/A   Overcast
5:55 AM 60.8 °F 52.0 °F 73% 29.89 in 10.0 mi NNW 11.5 mph 17.3 mph N/A   Overcast
6:15 AM 60.4 °F 52.0 °F 74% 29.90 in 10.0 mi NNW 13.8 mph 21.9 mph N/A   Overcast
6:35 AM 60.3 °F 51.8 °F 74% 29.90 in 10.0 mi NNW 15.0 mph 28.8 mph N/A   Overcast
6:55 AM 60.1 °F 51.3 °F 73% 29.90 in 10.0 mi NNW 15.0 mph 19.6 mph N/A   Overcast
7:15 AM 59.9 °F 51.6 °F 74% 29.91 in 10.0 mi NW 10.4 mph - N/A   Overcast
7:35 AM 59.5 °F 51.8 °F 76% 29.92 in 10.0 mi NNW 12.7 mph 17.3 mph N/A   Overcast
7:55 AM 59.5 °F 51.3 °F 74% 29.92 in 10.0 mi NW 10.4 mph 17.3 mph N/A   Overcast
8:15 AM 59.5 °F 51.1 °F 74% 29.93 in 10.0 mi NW 10.4 mph 17.3 mph N/A   Overcast
8:35 AM 60.1 °F 50.9 °F 72% 29.93 in 10.0 mi NNW 11.5 mph 20.7 mph N/A   Overcast
8:55 AM 61.0 °F 51.3 °F 70% 29.93 in 10.0 mi NNW 12.7 mph 20.7 mph N/A   Overcast
9:15 AM 60.8 °F 51.1 °F 70% 29.93 in 10.0 mi NW 15.0 mph 21.9 mph N/A   Overcast
9:35 AM 61.7 °F 51.1 °F 68% 29.93 in 10.0 mi NNW 11.5 mph 25.3 mph N/A   Overcast
9:55 AM 62.6 °F 50.7 °F 65% 29.94 in 10.0 mi NNW 15.0 mph 21.9 mph N/A   Overcast
10:15 AM 63.7 °F 50.7 °F 63% 29.94 in 10.0 mi NNW 15.0 mph 23.0 mph N/A   Overcast
10:35 AM 63.5 °F 51.1 °F 64% 29.94 in 10.0 mi NNW 11.5 mph 21.9 mph N/A   Overcast
10:55 AM 66.7 °F 51.6 °F 58% 29.94 in 10.0 mi NW 15.0 mph 21.9 mph N/A   Scattered Clouds
12:35 PM 70.9 °F 50.2 °F 48% 29.93 in 10.0 mi NNW 15.0 mph 24.2 mph N/A   Mostly Cloudy
12:55 PM 70.3 °F 51.1 °F 50% 29.93 in 10.0 mi NNW 17.3 mph 20.7 mph N/A   Mostly Cloudy
1:15 PM 71.4 °F 51.6 °F 50% 29.93 in 10.0 mi NW 13.8 mph 21.9 mph N/A   Mostly Cloudy
1:35 PM 70.9 °F 50.2 °F 48% 29.93 in 10.0 mi NNW 12.7 mph 20.7 mph N/A   Overcast
1:55 PM 72.1 °F 49.8 °F 45% 29.93 in 10.0 mi NNW 12.7 mph 23.0 mph N/A   Mostly Cloudy
2:15 PM 73.6 °F 51.6 °F 46% 29.93 in 10.0 mi NNW 16.1 mph 20.7 mph N/A   Mostly Cloudy
2:35 PM 73.4 °F 49.6 °F 43% 29.93 in 10.0 mi NW 15.0 mph 23.0 mph N/A   Mostly Cloudy
2:55 PM 73.8 °F 50.2 °F 43% 29.93 in 10.0 mi NW 13.8 mph 21.9 mph N/A   Mostly Cloudy
3:15 PM 75.2 °F 50.2 °F 41% 29.93 in 10.0 mi NW 12.7 mph - N/A   Mostly Cloudy
3:55 PM 75.2 °F 49.5 °F 40% 29.93 in 10.0 mi NW 15.0 mph 21.9 mph N/A   Scattered Clouds
4:15 PM 75.0 °F 48.7 °F 39% 29.93 in 10.0 mi NNW 11.5 mph 18.4 mph N/A   Scattered Clouds
4:35 PM 73.6 °F 48.9 °F 42% 29.93 in 10.0 mi NNW 12.7 mph 18.4 mph N/A   Scattered Clouds
5:15 PM 74.3 °F 48.2 °F 40% 29.94 in 10.0 mi NNW 12.7 mph 23.0 mph N/A   Mostly Cloudy
5:35 PM 74.7 °F 48.9 °F 40% 29.94 in 10.0 mi NNW 12.7 mph 23.0 mph N/A   Mostly Cloudy
5:55 PM 74.5 °F 47.8 °F 39% 29.94 in 10.0 mi NW 11.5 mph 19.6 mph N/A   Mostly Cloudy
6:15 PM 72.7 °F 48.4 °F 42% 29.94 in 10.0 mi NNW 8.1 mph - N/A   Mostly Cloudy
6:55 PM 72.9 °F 49.3 °F 43% 29.95 in 10.0 mi NW 8.1 mph - N/A   Scattered Clouds
7:15 PM 71.8 °F 49.1 °F 45% 29.95 in 10.0 mi NW 6.9 mph - N/A   Clear
7:35 PM 70.2 °F 49.8 °F 48% 29.95 in 10.0 mi NW 5.8 mph - N/A   Clear
7:55 PM 68.0 °F 50.7 °F 54% 29.96 in 10.0 mi NW 4.6 mph - N/A   Clear
8:15 PM 66.2 °F 50.7 °F 57% 29.97 in 10.0 mi NW 4.6 mph - N/A   Clear
8:35 PM 64.0 °F 50.5 °F 61% 29.97 in 10.0 mi NW 3.5 mph - N/A   Clear
8:55 PM 62.1 °F 51.4 °F 68% 29.98 in 10.0 mi WNW 3.5 mph - N/A   Clear
9:35 PM 59.4 °F 52.2 °F 77% 29.99 in 10.0 mi West 4.6 mph - N/A   Clear
10:15 PM 61.7 °F 51.8 °F 70% 30.00 in 10.0 mi NW 5.8 mph - N/A   Clear
10:35 PM 58.3 °F 51.6 °F 78% 30.00 in 10.0 mi NW 4.6 mph - N/A   Clear
10:55 PM 57.7 °F 51.3 °F 79% 30.01 in 10.0 mi NW 4.6 mph - N/A   Clear
11:15 PM 58.3 °F 51.6 °F 78% 30.01 in 10.0 mi NNW 3.5 mph - N/A   Clear
11:35 PM 57.6 °F 50.7 °F 78% 30.01 in 10.0 mi Calm Calm - N/A   Clear
11:55 PM 58.5 °F 51.1 °F 76% 30.00 in 10.0 mi Calm Calm - N/A   Clear